Change the Weather History Date:

Monday, December 3, 2012

  Actual Average Record
Temperature  
Mean Temperature 42 °F 30 °F  
Max Temperature 60 °F 44 °F 70 °F (1959)
Min Temperature 24 °F 17 °F -12 °F (1919)
Degree Days  
Heating Degree Days 21    
Moisture  
Dew Point 25 °F    
Average Humidity 58    
Maximum Humidity 92    
Minimum Humidity 24    
Precipitation  
Precipitation 0.00 in 0.02 in 0.41 in (2011)
Month to date precipitation 0.00 0.07  
Year to date precipitation 8.13 21.96  
Sea Level Pressure  
Sea Level Pressure 29.91 in    
Wind  
Wind Speed 10 mph (NW)    
Max Wind Speed 32 mph    
Max Gust Speed 39 mph    
Visibility 10 miles    
Events      
T = Trace of Precipitation, MM = Missing Value Source: NWS Daily Summary

Daily Weather History Graph

Daily Weather History Graph

Search for Another Location

Airport or City:

Trip Planner

Search our weather history database for the weather conditions in past years. The results will help you decide how hot, cold, wet, or windy it might be!

Date:

Astronomy

Dec. 03, 2012 Rise Set
Actual Time 7:48 AM CST 5:16 PM CST
Civil Twilight 7:17 AM CST 5:46 PM CST
Nautical Twilight 6:44 AM CST 6:20 PM CST
Astronomical Twilight 6:11 AM CST 6:53 PM CST
Moon 10:05 PM CST (12/3) 11:12 AM CST (12/3)
Length of Visible Light 10h 29m
Length of Day
9h 28m
Waning Gibbous, 78% of the Moon is Illuminated
Dec 3
Waning Gibbous
Dec 6
Last Quarter
Dec 13
New
Dec 19
First Quarter
Dec 28
Full

Hourly Weather History & Observations

Time (CST) Temp. Windchill Dew Point Humidity Pressure Visibility Wind Dir Wind Speed Gust Speed Precip Events Conditions
12:53 AM 39.9 °F 35.8 °F 32.0 °F 73% 29.59 in 10.0 mi South 5.8 mph - N/A   Clear
1:53 AM 34.0 °F 28.0 °F 28.9 °F 82% 29.57 in 9.0 mi North 6.9 mph - N/A   Clear
2:53 AM 30.0 °F 26.5 °F 28.0 °F 92% 29.58 in 8.0 mi North 3.5 mph - N/A   Clear
3:53 AM 28.0 °F 20.8 °F 26.1 °F 92% 29.60 in 7.0 mi North 6.9 mph - N/A   Clear
4:53 AM 30.0 °F 23.2 °F 28.0 °F 92% 29.61 in 7.0 mi WNW 6.9 mph - N/A   Clear
5:53 AM 30.0 °F 21.7 °F 27.0 °F 88% 29.65 in 9.0 mi West 9.2 mph - N/A   Clear
6:53 AM 28.9 °F 22.8 °F 25.0 °F 85% 29.71 in 10.0 mi SW 5.8 mph - N/A   Clear
7:53 AM 32.0 °F 24.8 °F 27.0 °F 82% 29.79 in 9.0 mi West 8.1 mph - N/A   Clear
8:53 AM 39.2 °F 31.6 °F 28.4 °F 65% 29.82 in 10.0 mi WNW 12.7 mph - N/A   Clear
9:51 AM 55.4 °F - 37.4 °F 51% 29.88 in 10.0 mi North 20.7 mph 31.1 mph N/A   Clear
9:53 AM 55.0 °F - 37.0 °F 51% 29.88 in 10.0 mi North 20.7 mph 28.8 mph N/A   Clear
10:53 AM 57.0 °F - 35.1 °F 44% 29.92 in 10.0 mi North 32.2 mph 39.1 mph N/A   Clear
11:53 AM 57.9 °F - 30.9 °F 36% 29.94 in 10.0 mi North 21.9 mph 32.2 mph N/A   Clear
12:53 PM 59.0 °F - 30.0 °F 33% 29.95 in 10.0 mi NNW 20.7 mph 31.1 mph N/A   Clear
1:53 PM 60.1 °F - 24.1 °F 25% 29.97 in 10.0 mi North 20.7 mph 26.5 mph N/A   Clear
2:53 PM 60.1 °F - 23.0 °F 24% 29.99 in 10.0 mi North 18.4 mph - N/A   Clear
3:53 PM 57.9 °F - 23.0 °F 26% 30.04 in 10.0 mi North 12.7 mph 20.7 mph N/A   Clear
4:53 PM 52.0 °F - 21.9 °F 31% 30.07 in 10.0 mi North 5.8 mph - N/A   Clear
5:53 PM 44.1 °F 39.0 °F 21.9 °F 42% 30.13 in 10.0 mi NW 9.2 mph - N/A   Clear
6:53 PM 37.0 °F 31.6 °F 19.9 °F 50% 30.16 in 10.0 mi NNW 6.9 mph - N/A   Clear
7:53 PM 33.1 °F - 18.0 °F 54% 30.19 in 10.0 mi Calm Calm - N/A   Clear
8:53 PM 30.9 °F 25.2 °F 18.0 °F 59% 30.19 in 10.0 mi SSW 5.8 mph - N/A   Clear
9:53 PM 28.9 °F - 17.1 °F 61% 30.19 in 10.0 mi Calm Calm - N/A   Clear
10:53 PM 28.9 °F 19.2 °F 16.0 °F 58% 30.19 in 10.0 mi WSW 11.5 mph - N/A   Clear
11:53 PM 25.0 °F 14.8 °F 12.9 °F 60% 30.22 in 10.0 mi West 10.4 mph - N/A   Clear